125  
ASUS41 KPHI 210912  
RWRPHI  
 
REGIONAL WEATHER ROUNDUP  
NATIONAL WEATHER SERVICE MOUNT HOLLY NJ  
400 AM EST TUE NOV 21 2017  
 
NOTE: "FAIR" INDICATES FEW OR NO CLOUDS BELOW 12,000 FEET WITH NO  
SIGNIFICANT WEATHER AND/OR S TO VISIBILITY
.  
 
* = STATION DOES NOT REPORT PRECIPITATION (E.G. RAIN, SNOW, ETC.)  
OR FOG.
 
 
NJZ015>026-211000-  
SOUTHERN NEW JERSEY  
 
CITY SKY/WX TMP DP RH WIND PRES REMARKS
 
POMONA PTCLDY 40 35 83 S5 30.17F  
MILLVILLE PTCLDY 45 36 70 CALM 30.16F  
WRIGHTSTOWN CLOUDY 35 29 80 SW6 30.12F WCI 30  
MOUNT HOLLY CLOUDY 39 30 70 VRB5 30.14F  
TRENTON CLOUDY 33 26 75 CALM 30.13F  
 

 
NJZ001>014-211000-  
NORTHERN NEW JERSEY  
 
CITY SKY/WX TMP DP RH WIND PRES REMARKS
 
SUSSEX CLOUDY 31 24 75 SW5 30.08F WCI 26  
ANDOVER* N/A 28 25 88 CALM 30.09F  
MORRISTOWN CLOUDY 34 25 69 S3 30.12S  
NEWARK CLOUDY 38 28 67 SW9 30.13F WCI 31  
TETERBORO CLOUDY 37 26 64 CALM 30.12S  
CALDWELL CLOUDY 38 24 57 SW3 30.12F  
SOMERVILLE CLOUDY 27 25 92 CALM 30.11F  
ALLAIRE* PTCLDY 41 29 62 S8 30.15F  
TOMS RIVER* CLOUDY 37 31 78 SW8 30.17S WCI 31  
 

 
PAZ043-044-047-054-055-060>062-066>071-211000-  
EASTERN PENNSYLVANIA  
 
CITY SKY/WX TMP DP RH WIND PRES REMARKS
 
PHILADELPHIA PTCLDY 40 30 67 S7 30.14F  
NORTH PHILA CLEAR 42 29 59 VRB6 30.14F  
BLUE BELL* CLEAR 36 30 80 S3 30.13F  
DOYLESTOWN CLOUDY 35 26 69 S5 30.10F WCI 31  
QUAKERTOWN* CLOUDY 32 23 69 CALM 30.10F  
PERKASIE* FAIR 32 25 74 CALM 30.11F  
POTTSTOWN CLOUDY 33 24 69 CALM 30.12F  
LANCASTER CLOUDY 32 25 75 E3 30.09F  
COATESVILLE CLEAR 39 27 60 VRB5 30.11F  
READING PTCLDY 29 27 92 NE3 30.08F  
ALLENTOWN PTCLDY 27 22 81 CALM 30.10F  
MOUNT POCONO CLOUDY 34 21 59 W3 30.02F  
HAZLETON CLOUDY 34 21 60 S3 30.05F  
LEHIGHTON FAIR 23 23 100 CALM 30.10F  
WILKES BARRE CLEAR 34 23 64 CALM 30.03F  
 

 
DEZALL-MDZ008-012-015-019-020-211000-  
DELAWARE AND EASTERN MARYLAND  
 
CITY SKY/WX TMP DP RH WIND PRES REMARKS
 
WILMINGTON CLEAR 35 29 78 CALM 30.14F  
DOVER CLEAR 40 39 99 S8 30.16F WCI 34  
GEORGETOWN CLEAR 38 32 79 S7 30.19F WCI 33  
EASTON CLEAR 40 32 73 S6 30.20F  
ABERDEEN CLEAR 40 32 72 SW8 30.13F WCI 35  
PATUXENT CLEAR 45 31 58 SW13 30.17F  
OCEAN CITY PTCLDY 45 34 65 SW9 30.21F  
WALLOPS ISLAND CLEAR 41 33 73 SW9 30.22F  
CAMBRIDGE CLEAR 43 34 70 S6 30.18F  
SALISBURY CLOUDY 37 33 85 S6 30.20F WCI 32  
 

 
PAZ001-021-NYZ056-072-MDZ011-DCZ001-211000-  
OTHER NEARBY LOCATIONS  
 
CITY SKY/WX TMP DP RH WIND PRES REMARKS
 
HARRISBURG CLOUDY 33 26 75 CALM 30.09S  
STATE COLLEGE CLEAR 31 22 67 NW5 30.01F WCI 27  
WILLIAMSPORT CLEAR 27 25 92 CALM 30.05F  
BINGHAMTON CLEAR 35 20 54 SW12 29.95F WCI 27  
NEW YORK CITY CLOUDY 43 29 57 SW5 30.14F  
BALTIMORE CLEAR 32 27 81 CALM 30.13F  
WASHINGTON DC MOCLDY 41 29 62 S12 30.15F  
 

 
 
 
CLICK HERE TO GO TO PREVIOUS BULLETINS.

The Nexlab PA Page
The Nexlab NJ Page
The Nexlab DE Page
The Nexlab MD Page Main Text Page